Simultaneous Nadir Overpasses (SNOs) Predictions

Prediction of SNOs between GOES-17 and NOAA-20 Satellite Orbit:

Table of predicted SNOs for the next 14.0 days since TLE Epoch: 6/11/2022
Index Date Time (GOES-17) GOES-17 Lat,Lon NOAA-20 Lat,Lon Distance(km) Time Diff (sec)
1 06/11/2022 22:28:17 -0.01,-137.19 0.25,-136.11 123.67 80
2 06/13/2022 10:52:44 0.01,-137.20 0.96,-141.37 476.16 80
3 06/14/2022 10:31:19 0.00,-137.19 -0.09,-136.85 39.66 80
4 06/16/2022 22:37:10 -0.00,-137.17 -0.08,-137.62 51.14 80
5 06/17/2022 22:15:45 0.00,-137.16 0.91,-133.08 464.44 80
6 06/19/2022 10:40:12 0.00,-137.15 0.24,-138.36 136.53 80
7 06/20/2022 10:18:46 0.00,-137.15 -0.75,-133.82 378.99 80
8 06/21/2022 22:43:22 -0.01,-137.12 -0.46,-139.12 227.63 80
9 06/22/2022 22:21:57 -0.00,-137.11 0.59,-134.60 287.74 80
10 06/24/2022 10:46:24 0.00,-137.10 0.62,-139.86 313.85 80
